Flag for Indonesia Weather past 2 weeks in Makassar, South Sulawesi, Indonesia

Now
90 °F

Passing clouds.


Feels Like: 96 °F
Forecast: 79 / 87 °F
Wind: 7 mph from West

Location: Ujung Pandang / Hasanuddin

Current Time: Apr 27, 2015 at 3:13:48 PM

Latest Report: Apr 27, 2015 at 2:30 PM


Visibility: N/A

Pressure: 29.77 "Hg

Humidity: 55%

Dew point: 72 °F

Location of MakassarLocation

Historic Weather in Makassar — Graph

°F

Makassar temperature yesterday

Maximum temperature yesterday: 86 °F (at 10:30 AM)
Minimum temperature yesterday: 73 °F (at 12:30 AM)
Average temperature yesterday: 79 °F

Past Weeks' High & Low Weather Summary

 TemperatureHumidityPressure
High91 °F (Apr 14, 11:00 AM)100% (Apr 12, 3:30 PM)29.92 "Hg (Apr 12, 3:30 PM)
Low73 °F (Apr 15, 4:00 AM)49% (Apr 27, 12:30 PM)29.74 "Hg (Apr 15, 3:30 PM)
Average81 °F84%29.84 "Hg
* Reported Apr 12 2:00 PM — Apr 27 2:00 PM, Makassar, Weather by CustomWeather, © 2015

Note: Actual official high and low records may vary slightly from our data, if they occured in-between our weather recording intervals... More about our weather records

Advertising

Makassar weather history for previous 24 hours

 ConditionsComfort  
Time TempWeatherWind HumidityBarometerVisibility
2:00 PM
Mon, Apr 27
90 °FPassing clouds.7 mph52%29.80 "HgN/A
1:30 PM90 °FPassing clouds.2 mph52%29.80 "HgN/A
1:00 PM91 °FPassing clouds.5 mph56%29.83 "HgN/A
12:30 PM91 °FPassing clouds.2 mph49%29.83 "HgN/A
12:00 PM90 °FPassing clouds.3 mph55%29.86 "HgN/A
11:00 AM88 °FPassing clouds.1 mph66%29.89 "HgN/A
10:30 AM86 °FPassing clouds.2 mph66%29.89 "HgN/A
10:00 AM84 °FPassing clouds.3 mph70%29.89 "HgN/A
9:30 AM82 °FPassing clouds.3 mph74%29.89 "HgN/A
9:00 AM81 °FPassing clouds.3 mph79%29.89 "HgN/A
8:30 AM81 °FPassing clouds.3 mph79%29.89 "HgN/A
8:00 AM79 °FPassing clouds.3 mph79%29.86 "HgN/A
7:30 AM77 °FPassing clouds.2 mph89%29.86 "HgN/A
7:00 AM75 °FPassing clouds.2 mph94%29.86 "Hg6 mi
6:30 AM75 °FPassing clouds.2 mph89%29.83 "Hg6 mi
6:00 AM75 °FPassing clouds.2 mph94%29.83 "Hg6 mi
5:30 AM75 °FPassing clouds.3 mph94%29.83 "Hg5 mi
5:00 AM75 °FPassing clouds.2 mph94%29.83 "Hg5 mi
4:30 AM75 °FPassing clouds.2 mph94%29.80 "Hg5 mi
4:00 AM75 °FMild.2 mph94%29.80 "HgN/A
3:30 AM75 °FMild.2 mph94%29.80 "HgN/A
3:00 AM75 °FPassing clouds.3 mph94%29.83 "Hg5 mi
2:30 AM75 °FPassing clouds.3 mph94%29.83 "Hg5 mi
2:00 AM75 °FPassing clouds.2 mph94%29.83 "Hg5 mi
1:30 AM77 °FPassing clouds.3 mph94%29.86 "Hg5 mi
1:00 AM77 °FPassing clouds.2 mph100%29.86 "Hg5 mi
12:30 AM77 °FPassing clouds.2 mph94%29.86 "Hg4 mi
12:00 AM77 °FPassing clouds.2 mph94%29.89 "Hg4 mi
11:30 PM
Sun, Apr 26
77 °FPassing clouds.3 mph100%29.89 "Hg4 mi
11:00 PM77 °FLight rain. Passing clouds.3 mph100%29.89 "Hg4 mi
10:30 PM77 °FLight rain. Passing clouds.3 mph100%29.89 "Hg4 mi
10:00 PM77 °FLight rain. Passing clouds.3 mph100%29.86 "Hg4 mi
9:00 PM79 °FLight rain. Passing clouds.3 mph89%29.86 "Hg4 mi
8:30 PM79 °FPassing clouds.No wind89%29.86 "Hg5 mi
8:00 PM79 °FPassing clouds.No wind89%29.86 "Hg5 mi
7:30 PM79 °FPassing clouds.2 mph89%29.86 "Hg5 mi
7:00 PM79 °FPassing clouds.3 mph89%29.86 "Hg5 mi
6:30 PM79 °FPassing clouds.6 mph89%29.86 "Hg5 mi
6:00 PM81 °FPassing clouds.5 mph79%29.86 "Hg5 mi
3:00 PM86 °FPassing clouds.5 mph66%29.83 "HgN/A
Weather by CustomWeather, © 2015

See weather overviewHow to use our weather pages